Volver al catálogo

STARLINK-34810

ActivoComunicacionesSSO
NORAD 65068·PAYLOAD·🇺🇸 United States

Lanzado Jul 31, 2025 desde Vandenberg Space Force Base

Loading…

Próximos Pases (próximas 24 horas)

TLE

ActualizadoSource: CelesTrak SupGP

Época: Sep 15, 2026, 02:31 UTC

1 65068C 25165N   26258.10534722  .01973700  00000+0  73905-1 0  2580
2 65068  97.2842 329.3566 0001548  87.8038 341.4646 15.26361921    10

Sigue STARLINK-34810 en tiempo real con AllMySat

Download on the App Store